Phuket, Thailand

10:40 PM +07 on August 16, 2017 (GMT +0700)
Phuket International

Weather History for VTSP - October, 2014

Change the Weather History Date:

Monday, October 20, 2014

  Actual Average Record
Temperature  
Mean Temperature 79 °F -  
Max Temperature 86 °F 88 °F 95 °F (1997)
Min Temperature 72 °F 75 °F 72 °F (2014)
Cooling Degree Days 14    
Growing Degree Days 29 (Base 50)    
Moisture  
Dew Point 74 °F    
Average Humidity 84    
Maximum Humidity 98    
Minimum Humidity 70    
Precipitation  
Precipitation 0.04 in 0.32 in - ()
Sea Level Pressure  
Sea Level Pressure 29.84 in    
Wind  
Wind Speed 2 mph ()    
Max Wind Speed 10 mph    
Max Gust Speed -    
Visibility 5.6 miles    
Events Rain    
Averages and records for this station are not official NWS values.
T = Trace of Precipitation, MM = Missing Value Source: Averaged Metar Reports

Daily Weather History Graph

Daily Weather History Graph

Search for Another Location

Airport or City:

Trip Planner

Search our weather history database for the weather conditions in past years. The results will help you decide how hot, cold, wet, or windy it might be!

Date:

Astronomy

Oct. 20, 2014 Rise Set
Actual Time 6:14 AM +07 6:08 PM +07
Civil Twilight 5:52 AM +07 6:30 PM +07
Nautical Twilight 5:28 AM +07 6:54 PM +07
Astronomical Twilight 5:03 AM +07 7:19 PM +07
Moon 3:14 AM +07 (10/20) 3:39 PM +07 (10/20)
Length of Visible Light 12h 37m
Length of Day
11h 54m
Waning Crescent, 13% of the Moon is Illuminated
Oct 20
Waning Crescent
Oct 24
New
Oct 31
First Quarter
Nov 7
Full
Nov 14
Last Quarter

Hourly Weather History & Observations

Time (+07) Temp. Heat Index Dew Point Humidity Pressure Visibility Wind Dir Wind Speed Gust Speed Precip Events Conditions
12:00 AM 75.2 °F - 73.4 °F 94% 29.89 in 5.6 mi Calm Calm - N/A   Mostly Cloudy
12:30 AM 75.2 °F - 73.4 °F 94% 29.86 in 5.6 mi Calm Calm - N/A   Mostly Cloudy
1:00 AM 75 °F - 73 °F 92% 29.81 in 5 mi Calm Calm - -   Mist
1:00 AM 75.2 °F - 73.4 °F 94% 29.86 in 5.6 mi Calm Calm - N/A   Mostly Cloudy
1:30 AM 75.2 °F - 71.6 °F 89% 29.86 in 5.6 mi Calm Calm - N/A   Mostly Cloudy
2:00 AM 75.2 °F - 73.4 °F 94% 29.83 in 5.6 mi Calm Calm - N/A   Mostly Cloudy
2:30 AM 75.2 °F - 71.6 °F 89% 29.83 in 5.6 mi Calm Calm - N/A   Mostly Cloudy
3:30 AM 75.2 °F - 71.6 °F 89% 29.80 in 5.6 mi Calm Calm - N/A   Mostly Cloudy
4:00 AM 75 °F - 73 °F 92% 29.76 in 5 mi Calm Calm - -   Mist
4:00 AM 75.2 °F - 71.6 °F 89% 29.80 in 5.6 mi Calm Calm - N/A   Mostly Cloudy
5:30 AM 75.2 °F - 71.6 °F 89% 29.83 in 5.6 mi Calm Calm - N/A   Mostly Cloudy
6:00 AM 75.2 °F - 71.6 °F 89% 29.83 in 5.6 mi Calm Calm - N/A   Mostly Cloudy
6:30 AM 75.2 °F - 71.6 °F 89% 29.86 in 5.6 mi ESE 3.5 mph - N/A   Mostly Cloudy
7:00 AM 75 °F - 74 °F 98% 29.80 in 5 mi Calm Calm - -   Mist
7:00 AM 75.2 °F - 73.4 °F 94% 29.86 in 5.6 mi ESE 3.5 mph - N/A   Mostly Cloudy
7:30 AM 77.0 °F - 73.4 °F 89% 29.86 in 5.6 mi East 3.5 mph - N/A   Mostly Cloudy
8:00 AM 77.0 °F - 75.2 °F 94% 29.89 in 5.6 mi East 4.6 mph - N/A   Mostly Cloudy
8:30 AM 78.8 °F - 75.2 °F 89% 29.89 in 6.2 mi ENE 3.5 mph - N/A   Mostly Cloudy
9:00 AM 78.8 °F - 75.2 °F 89% 29.89 in 6.2 mi East 3.5 mph - N/A   Mostly Cloudy
9:30 AM 80.6 °F 86.2 °F 75.2 °F 84% 29.92 in 6.2 mi East 4.6 mph - N/A   Mostly Cloudy
10:00 AM 82 °F - 77 °F 80% 29.87 in 6 mi East 5.8 mph - -   Scattered Clouds
10:00 AM 82.4 °F 89.5 °F 75.2 °F 79% 29.92 in 6.2 mi East 5.8 mph - N/A   Mostly Cloudy
10:30 AM 82.4 °F 89.5 °F 75.2 °F 79% 29.92 in 6.2 mi NE 5.8 mph - N/A   Mostly Cloudy
11:00 AM 82.4 °F 89.5 °F 75.2 °F 79% 29.92 in 6.2 mi ENE 8.1 mph - N/A   Mostly Cloudy
11:30 AM 84.2 °F 92.3 °F 75.2 °F 74% 29.86 in 6.2 mi East 5.8 mph - N/A   Mostly Cloudy
12:00 PM 84.2 °F 92.3 °F 75.2 °F 74% 29.86 in 6.2 mi ENE 5.8 mph - N/A   Mostly Cloudy
12:30 PM 84.2 °F 92.3 °F 75.2 °F 74% 29.83 in 5.6 mi Variable 3.5 mph - N/A   Mostly Cloudy
1:00 PM 84 °F - 77 °F 75% 29.83 in 6 mi West 5.8 mph - - Rain Light Rain
1:00 PM 82.4 °F 89.5 °F 75.2 °F 79% 29.83 in 5.6 mi Variable 3.5 mph - N/A   Mostly Cloudy
1:30 PM 84.2 °F 90.9 °F 73.4 °F 70% 29.80 in 6.2 mi West 3.5 mph - N/A   Mostly Cloudy
2:00 PM 84.2 °F 90.9 °F 73.4 °F 70% 29.80 in 6.2 mi WNW 3.5 mph - N/A   Mostly Cloudy
2:30 PM 84.2 °F 92.3 °F 75.2 °F 74% 29.80 in 6.2 mi West 3.5 mph - N/A   Mostly Cloudy
3:00 PM 84.2 °F 92.3 °F 75.2 °F 74% 29.77 in 3.7 mi Variable 4.6 mph - N/A Rain Rain
3:30 PM 82.4 °F 89.5 °F 75.2 °F 79% 29.77 in 5.6 mi Variable 2.3 mph - N/A   Mostly Cloudy
4:00 PM 84 °F - 78 °F 78% 29.77 in 6 mi NW 5.8 mph - - Rain Light Rain
4:00 PM 82.4 °F 89.5 °F 75.2 °F 79% 29.77 in 6.2 mi Calm Calm - N/A   Mostly Cloudy
4:30 PM 84.2 °F 90.9 °F 73.4 °F 70% 29.77 in 6.2 mi West 5.8 mph - N/A   Mostly Cloudy
5:00 PM 84.2 °F 90.9 °F 73.4 °F 70% 29.80 in 6.2 mi West 4.6 mph - N/A   Mostly Cloudy
5:30 PM 84.2 °F 92.3 °F 75.2 °F 74% 29.80 in 6.2 mi Variable 2.3 mph - N/A   Mostly Cloudy
6:00 PM 82.4 °F 88.2 °F 73.4 °F 74% 29.80 in 5.6 mi Variable 2.3 mph - N/A   Mostly Cloudy
6:30 PM 80.6 °F 85.4 °F 73.4 °F 79% 29.83 in 4.3 mi ENE 4.6 mph - N/A   Mostly Cloudy
7:00 PM 81 °F - 76 °F 80% 29.79 in 5 mi Calm Calm - -   Mist
7:00 PM 80.6 °F 86.2 °F 75.2 °F 84% 29.83 in 4.3 mi Calm Calm - N/A   Mostly Cloudy
7:30 PM 78.8 °F - 75.2 °F 89% 29.83 in 4.3 mi Calm Calm - N/A   Mostly Cloudy
8:00 PM 78.8 °F - 75.2 °F 89% 29.86 in 5.0 mi Calm Calm - N/A   Mostly Cloudy
8:30 PM 78.8 °F - 75.2 °F 89% 29.86 in 5.0 mi East 4.6 mph - N/A   Mostly Cloudy
9:00 PM 78.8 °F - 75.2 °F 89% 29.86 in 5.0 mi Calm Calm - N/A   Mostly Cloudy
9:30 PM 78.8 °F - 75.2 °F 89% 29.89 in 5.0 mi ENE 3.5 mph - N/A   Mostly Cloudy
10:00 PM 78 °F - 76 °F 91% 29.86 in 6 mi Calm Calm - -   Mist
10:00 PM 78.8 °F - 73.4 °F 83% 29.89 in 5.0 mi ENE 3.5 mph - N/A   Mostly Cloudy
10:30 PM 78.8 °F - 75.2 °F 89% 29.89 in 5.0 mi East 4.6 mph - N/A   Mostly Cloudy
11:00 PM 78.8 °F - 75.2 °F 89% 29.92 in 5.0 mi East 4.6 mph - N/A   Mostly Cloudy
11:30 PM 78.8 °F - 75.2 °F 89% 29.92 in 5.0 mi ENE 10.4 mph - N/A   Mostly Cloudy